[[{"header":{"parameterUnit":"m.s-1","parameterCategory":1,"la1":30.2992,"la2":30.254,"lo1":-89.0895,"lo2":-89.0443,"dy":0.0025,"dx":0.0025,"nx":19,"ny":19,"refTime":"2026-04-14T21:00:00:Z","depth":0,"parameterNumber":2,"parameterNumberName":"U-component_of_WINDS"},"data":[0,0,0,-0.2798,-0.2795,-0.2624,-0.2624,-0.2428,-0.2427,0,0,0,0,0,0,0,0,0,0,0,-0.2865,-0.2864,-0.2798,-0.2794,-0.2624,-0.2623,-0.2429,-0.2427,0,0,0,0,0,0,0,0,0,0,0,-0.2865,-0.2864,-0.2863,-0.2794,-0.2625,-0.2623,-0.2429,-0.2549,0,0,0,0,0,0,0,0,0,0,-0.271,-0.2788,-0.2864,-0.2863,-0.2793,-0.2625,-0.2623,-0.2554,-0.2541,-0.2516,0,-0.25,0,-0.2461,-0.2415,-0.2415,0,0,0,-0.2782,-0.2799,-0.2739,-0.2863,-0.2792,-0.2625,-0.2697,-0.2547,-0.2532,-0.2499,-0.2497,-0.2489,-0.2457,-0.2414,-0.2413,-0.2315,-0.2315,0,0,-0.2791,-0.2842,-0.2749,-0.273,-0.2761,-0.2703,-0.2692,-0.2537,-0.2538,-0.2496,-0.2484,-0.2454,-0.2413,-0.2412,-0.2315,-0.2315,0,0,0,-0.2827,-0.2849,-0.2792,-0.2739,-0.2707,-0.2698,-0.2686,-0.2544,-0.2522,-0.2482,-0.2452,-0.2412,-0.241,-0.2315,-0.2315,-0.2372,0,0,0,-0.2832,-0.287,-0.2797,-0.2826,-0.271,-0.2624,-0.2697,-0.2532,-0.2513,-0.2453,-0.2412,-0.2408,-0.2314,-0.2315,-0.237,-0.2391,0,0,0,-0.287,-0.2874,-0.2855,-0.283,-0.2759,-0.2625,-0.2593,-0.2527,-0.2496,-0.2415,-0.2408,-0.2314,-0.2315,-0.2369,-0.2388,-0.2379,0,0,0,-0.2925,-0.2908,-0.2857,-0.2826,-0.276,-0.2663,-0.2594,-0.2518,-0.2455,-0.2411,-0.2314,-0.2315,-0.2368,-0.2386,-0.2378,-0.2382,-0.2389,0,0,-0.2932,-0.2911,-0.2888,-0.2838,-0.2763,-0.2685,-0.2617,-0.251,-0.2454,-0.2364,-0.2361,-0.2371,-0.2387,-0.2379,-0.2409,-0.2415,0,0,0,-0.2908,-0.2893,-0.2862,-0.2806,-0.2725,-0.2656,-0.2555,-0.2514,-0.2436,-0.2419,-0.2364,-0.2372,-0.2365,-0.2365,-0.237,-0.236,-0.2317,-0.2317,-0.2317,-0.2991,-0.2922,-0.288,-0.2791,-0.2737,-0.2632,-0.2581,-0.2509,-0.2454,-0.2442,-0.2415,-0.2442,-0.2443,-0.2446,-0.2437,-0.2411,-0.2411,-0.2412,-0.2412,-0.2995,-0.2962,-0.289,-0.2824,-0.275,-0.2692,-0.2589,-0.2552,-0.2486,-0.2456,-0.2447,-0.242,-0.2455,-0.2443,-0.2415,-0.2415,-0.2414,-0.2414,-0.2414,-0.3042,-0.3014,-0.2967,-0.2878,-0.2816,-0.2725,-0.2665,-0.2599,-0.2536,-0.2527,-0.249,-0.2489,-0.2479,-0.2514,-0.2514,-0.2514,-0.2514,-0.2514,-0.2514,-0.311,-0.3054,-0.3013,-0.2926,-0.2881,-0.2812,-0.2706,-0.2658,-0.2588,-0.2545,-0.2544,-0.249,-0.2472,-0.2469,-0.2516,-0.2515,-0.2515,-0.2515,-0.2515,-0.3139,-0.3122,-0.3059,-0.3014,-0.2904,-0.2847,-0.2764,-0.2672,-0.2623,-0.2595,-0.2542,-0.254,-0.2513,-0.2508,-0.2505,-0.2559,-0.2559,-0.2559,-0.2559,-0.3179,-0.3159,-0.3079,-0.3011,-0.2936,-0.2854,-0.2782,-0.2699,-0.2609,-0.2573,-0.2556,-0.2546,-0.2544,-0.2518,-0.2513,-0.2509,-0.2562,-0.2562,-0.2562,-0.3193,-0.3163,-0.3116,-0.303,-0.2939,-0.2862,-0.2792,-0.2714,-0.2608,-0.2561,-0.2544,-0.2544,-0.2527,-0.2525,-0.2479,-0.2473,-0.2464,0,0]},{"header":{"parameterUnit":"m.s-1","parameterCategory":1,"la1":30.2992,"la2":30.254,"lo1":-89.0895,"lo2":-89.0443,"dy":0.0025,"dx":0.0025,"nx":19,"ny":19,"refTime":"2026-04-14T21:00:00:Z","depth":0,"parameterNumber":3,"parameterNumberName":"V-component_of_WINDS"},"data":[0,0,0,2.6895,2.6892,2.6762,2.6761,2.6592,2.659,0,0,0,0,0,0,0,0,0,0,0,2.6937,2.6936,2.6895,2.6892,2.6762,2.6761,2.6592,2.659,0,0,0,0,0,0,0,0,0,0,0,2.6938,2.6936,2.6935,2.6891,2.6762,2.6761,2.6593,2.669,0,0,0,0,0,0,0,0,0,0,2.6817,2.6861,2.6937,2.6935,2.6891,2.6762,2.6761,2.6695,2.6684,2.6652,0,2.6628,0,2.6607,2.658,2.6579,0,0,0,2.6887,2.687,2.6832,2.6935,2.6889,2.6762,2.6819,2.6689,2.6677,2.6637,2.6626,2.662,2.6604,2.6578,2.6578,2.6416,2.6415,0,0,2.6895,2.6914,2.6841,2.6825,2.6851,2.6823,2.6815,2.6682,2.6668,2.6625,2.6616,2.6602,2.6577,2.6576,2.6416,2.6416,0,0,0,2.6918,2.692,2.6885,2.6832,2.6809,2.682,2.681,2.6674,2.6662,2.6614,2.66,2.6576,2.6574,2.6417,2.6416,2.641,0,0,0,2.6922,2.6933,2.6888,2.6899,2.6812,2.6741,2.6806,2.6671,2.6655,2.6601,2.6576,2.6573,2.6418,2.6417,2.6411,2.6402,0,0,0,2.6944,2.6936,2.6919,2.69,2.6846,2.6743,2.6722,2.6667,2.6647,2.6579,2.6572,2.6418,2.6417,2.6413,2.6405,2.6366,0,0,0,2.6972,2.6913,2.6919,2.6847,2.6847,2.6742,2.6723,2.6642,2.6583,2.6576,2.6418,2.6416,2.6413,2.6406,2.6367,2.6336,2.6326,0,0,2.6908,2.6906,2.6862,2.6864,2.6764,2.676,2.6656,2.6581,2.6553,2.6462,2.6458,2.6411,2.6405,2.6366,2.6262,2.6254,0,0,0,2.6848,2.6817,2.6786,2.6734,2.6678,2.6628,2.6568,2.654,2.6462,2.6513,2.6386,2.6382,2.6358,2.6342,2.6335,2.6313,2.641,2.641,2.6411,2.6785,2.6758,2.6683,2.6639,2.6588,2.6527,2.6481,2.6432,2.6416,2.6387,2.6359,2.63,2.6282,2.6277,2.6254,2.6341,2.6341,2.6341,2.6341,2.6688,2.6639,2.6623,2.6545,2.6514,2.6445,2.6383,2.6374,2.6303,2.6318,2.6296,2.6314,2.6269,2.6247,2.634,2.634,2.634,2.634,2.6341,2.6643,2.6615,2.6585,2.6506,2.6448,2.6404,2.6338,2.6311,2.6284,2.6263,2.6229,2.6229,2.6225,2.6249,2.6249,2.6249,2.6249,2.6248,2.6248,2.6608,2.6574,2.6525,2.6462,2.6424,2.6371,2.6309,2.627,2.6219,2.6204,2.6203,2.6189,2.6271,2.6292,2.6245,2.6245,2.6246,2.6246,2.6246,2.6518,2.6535,2.6458,2.6421,2.6344,2.6287,2.6255,2.6177,2.614,2.6107,2.6098,2.6164,2.6158,2.6163,2.6179,2.6106,2.6106,2.6106,2.6106,2.6479,2.6475,2.6391,2.6333,2.6273,2.6237,2.6146,2.6096,2.6046,2.6021,2.6028,2.6048,2.6055,2.6044,2.6052,2.6067,2.5967,2.5967,2.5967,2.6422,2.6411,2.6342,2.6298,2.6236,2.6182,2.6095,2.6025,2.5971,2.596,2.6,2.6006,2.6038,2.6051,2.6039,2.6052,2.6079,0,0]}]]